Regional Weather Roundup
Issued by NWS

Home | Current Version | Previous Version | Graphics & Text | Print | Product List | Glossary On
Versions: 1 2 3 4 5 6 7 8 9 10 11 12 13 14 15 16 17 18 19 20 21 22 23 24 25 26 27 28 29 30 31 32 33 34 35 36 37 38 39 40 41 42 43 44 45 46 47 48 49 50
000
ASUS43 KFSD 172110
RWRSD

WEATHER ROUNDUP FOR SOUTH DAKOTA
NATIONAL WEATHER SERVICE SIOUX FALLS SD
300 PM CST TUE JAN 17 2017

NOTE: "FAIR" INDICATES FEW OR NO CLOUDS BELOW 12,000 FEET WITH NO
SIGNIFICANT WEATHER AND/OR OBSTRUCTIONS TO VISIBILITY.


SDZ001>005-009-010-012>017-172200-
NORTHWEST AND NORTH CENTRAL SOUTH DAKOTA

CITY           SKY/WX    TMP DP  RH WIND       PRES   REMARKS
BUFFALO          N/A     34  23  64 W14       29.76S WCI  25
FAITH            N/A     21  16  81 S10       29.84F WCI  10
MOBRIDGE       CLOUDY    20  12  71 SE9       29.86F WCI   9
$$

SDZ012>016-024>037-041>051-057-063-072>074-172200-
SOUTHWEST AND SOUTH CENTRAL SOUTH DAKOTA

CITY           SKY/WX    TMP DP  RH WIND       PRES   REMARKS
RAPID CTY ARPT CLOUDY    36  22  56 CALM      29.87F
PIERRE         CLOUDY    24  17  74 S6        29.91F WCI  17
CUSTER         SUNNY     49  14  24 SW6       29.87F
ELLSWORTH AFB  CLOUDY    37  25  60 CALM      29.86F
PHILIP         CLOUDY    32  20  61 W9        29.90F WCI  24
PINE RIDGE     CLOUDY    37  17  44 W9        29.92F
SPEARFISH      FAIR      52  19  28 W8        29.86F
WINNER         FAIR      51  21  30 SW10      29.92F
$$

SDZ004>011-016>023-039-040-172200-
NORTHEAST SOUTH DAKOTA

CITY           SKY/WX    TMP DP  RH WIND       PRES   REMARKS
ABERDEEN       CLOUDY    18  11  74 S12       29.94F WCI   5
WATERTOWN      CLOUDY    21  17  84 S3        29.94F
BROOKINGS      SUNNY     26  20  77 W3        29.97S
SISSETON         N/A     29  24  82 SW7       29.92F WCI  22
$$

SDZ017-020-022-023-036>040-048>070-172200-
SOUTHEAST SOUTH DAKOTA

CITY           SKY/WX    TMP DP  RH WIND       PRES   REMARKS
SIOUX FALLS    MOSUNNY   31  23  72 W3        30.00F
HURON          CLOUDY    29  21  72 S7        29.97F WCI  22
CHAMBERLAIN    SUNNY     40  26  58 E5        29.95F
MITCHELL       SUNNY     36  25  64 SW6       29.99F
YANKTON        SUNNY     34  27  75 CALM      30.02F
$$

ABBREVIATIONS USED IN REMARKS
   TC - TEMPERATURE IN CELSIUS
  WCI - WIND CHILL INDEX
   HX - HEAT INDEX
  VSB - VISIBILITY




USA.gov is the U.S. government's official web portal to all federal, state and local government web resources and services.